User: anonymous   Login
Location: Belvedere Heights
(33.9836°N, 117.3109°W)
Time: 06:59:30
(UTC+00:00)
Language:

EO-79 - Orbit

View from above orbital plane
View from above orbital plane
View from above satellite
View from above satellite

Ground track
Ground track

The orbit data is extracted from the following two-line orbital elements,

1 40025U 14033R   24141.85874445  .00011880  00000-0  97498-3 0  9997
2 40025  98.0415 101.7359 0008056 248.9981 111.0379 14.99354211539295
Epoch (UTC): 20 May 2024 20:36:35
Eccentricity: 0.0008056
inclination: 98.0415°
perigee height: 563 km
apogee height: 574 km
right ascension of ascending node: 101.7359°
argument of perigee: 248.9981°
revolutions per day: 14.99354211
mean anomaly at epoch: 111.0379°
orbit number at epoch: 53929

The dashed part of the orbit path shows where the satellite is in the earth's shadow,  

DLR